Year,Month,Day,Hour,Minute,Value (Times are PST for temperature in C)
2021,07,05,07,43,15.90
2021,07,05,07,44,15.90
2021,07,05,07,45,15.90
2021,07,05,07,46,15.90
2021,07,05,07,47,15.90
2021,07,05,07,48,15.90
2021,07,05,07,49,15.90
2021,07,05,07,50,15.90
2021,07,05,07,51,15.90
2021,07,05,07,52,15.90
2021,07,05,07,53,15.90
2021,07,05,07,54,15.90
2021,07,05,07,55,15.90
2021,07,05,07,56,15.80
2021,07,05,07,57,15.80
2021,07,05,07,58,15.80
2021,07,05,07,59,15.80
2021,07,05,08,00,15.80
2021,07,05,08,01,15.80
2021,07,05,08,02,15.80
2021,07,05,08,03,15.80
2021,07,05,08,04,15.80
2021,07,05,08,05,15.90
2021,07,05,08,06,15.90
2021,07,05,08,07,16.00
2021,07,05,08,08,16.10
2021,07,05,08,09,16.00
2021,07,05,08,10,15.90
2021,07,05,08,11,15.90
2021,07,05,08,12,15.90
2021,07,05,08,13,15.80
2021,07,05,08,14,15.80
2021,07,05,08,15,15.80
2021,07,05,08,16,15.80
2021,07,05,08,17,15.80
2021,07,05,08,18,15.80
2021,07,05,08,19,15.80
2021,07,05,08,20,15.80
2021,07,05,08,21,15.80
2021,07,05,08,22,15.80
2021,07,05,08,23,15.80
2021,07,05,08,24,15.90
2021,07,05,08,25,15.90
2021,07,05,08,26,16.00
2021,07,05,08,27,16.10
2021,07,05,08,28,16.10
2021,07,05,08,29,16.10
2021,07,05,08,30,16.10
2021,07,05,08,31,16.10
2021,07,05,08,32,16.10
2021,07,05,08,33,16.10
2021,07,05,08,34,16.10
2021,07,05,08,35,16.10
2021,07,05,08,36,16.20
2021,07,05,08,37,16.20
2021,07,05,08,38,16.30
2021,07,05,08,39,16.30
2021,07,05,08,40,16.40
2021,07,05,08,41,16.40
2021,07,05,08,42,16.50
2021,07,05,08,43,16.60
2021,07,05,08,44,16.60
2021,07,05,08,45,16.70
2021,07,05,08,46,16.70
2021,07,05,08,47,16.70
2021,07,05,08,48,16.70
2021,07,05,08,49,16.80
2021,07,05,08,50,16.80
2021,07,05,08,51,16.80
2021,07,05,08,52,16.90
2021,07,05,08,53,17.00
2021,07,05,08,54,17.00
2021,07,05,08,55,17.10
2021,07,05,08,56,17.20
2021,07,05,08,57,17.30
2021,07,05,08,58,17.30
2021,07,05,08,59,17.30
2021,07,05,09,00,17.30
2021,07,05,09,01,17.30
2021,07,05,09,02,17.30
2021,07,05,09,03,17.30
2021,07,05,09,04,17.30
2021,07,05,09,05,17.30
2021,07,05,09,06,17.30
2021,07,05,09,07,17.20
2021,07,05,09,08,17.20
2021,07,05,09,09,17.10
2021,07,05,09,10,17.00
2021,07,05,09,11,17.00
2021,07,05,09,12,17.00
2021,07,05,09,13,17.00
2021,07,05,09,14,17.00
2021,07,05,09,15,17.00
2021,07,05,09,16,16.90
2021,07,05,09,17,16.90
2021,07,05,09,18,16.90
2021,07,05,09,19,16.90
2021,07,05,09,20,16.90
2021,07,05,09,21,17.00
2021,07,05,09,22,17.10
2021,07,05,09,23,17.10
2021,07,05,09,24,17.20
2021,07,05,09,25,17.20
2021,07,05,09,26,17.30
2021,07,05,09,27,17.30
2021,07,05,09,28,17.30
2021,07,05,09,29,17.30
2021,07,05,09,30,17.30
2021,07,05,09,31,17.40
2021,07,05,09,32,17.50
2021,07,05,09,33,17.50
2021,07,05,09,34,17.60
2021,07,05,09,35,17.70
2021,07,05,09,36,17.70
2021,07,05,09,37,17.80
2021,07,05,09,38,17.90
2021,07,05,09,39,17.90
2021,07,05,09,40,18.00
2021,07,05,09,41,18.10
2021,07,05,09,42,18.10
2021,07,05,09,43,18.00
2021,07,05,09,44,18.00
2021,07,05,09,45,18.10
2021,07,05,09,46,18.10
2021,07,05,09,47,17.90
2021,07,05,09,48,17.90
2021,07,05,09,49,17.90
2021,07,05,09,50,17.90
2021,07,05,09,51,17.90
2021,07,05,09,52,17.90
2021,07,05,09,53,18.00
2021,07,05,09,54,18.10
2021,07,05,09,55,18.10
2021,07,05,09,56,18.20
2021,07,05,09,57,18.20
2021,07,05,09,58,18.20
2021,07,05,09,59,18.20
2021,07,05,10,00,18.20
2021,07,05,10,01,18.30
2021,07,05,10,02,18.40
2021,07,05,10,03,18.50
2021,07,05,10,04,18.60
2021,07,05,10,05,18.60
2021,07,05,10,06,18.70
2021,07,05,10,07,18.70
2021,07,05,10,08,18.80
2021,07,05,10,09,18.70
2021,07,05,10,10,18.70
2021,07,05,10,11,18.70
2021,07,05,10,12,18.70
2021,07,05,10,13,18.70
2021,07,05,10,14,18.70
2021,07,05,10,15,18.70
2021,07,05,10,16,18.50
2021,07,05,10,17,18.50
2021,07,05,10,18,18.50
2021,07,05,10,19,18.50
2021,07,05,10,20,18.50
2021,07,05,10,21,18.50
2021,07,05,10,22,18.50
2021,07,05,10,23,18.50
2021,07,05,10,24,18.60
2021,07,05,10,25,18.60
2021,07,05,10,26,18.60
2021,07,05,10,27,18.70
2021,07,05,10,28,18.80
2021,07,05,10,29,18.80
2021,07,05,10,30,18.90
2021,07,05,10,31,18.90
2021,07,05,10,32,19.10
2021,07,05,10,33,19.10
2021,07,05,10,34,19.20
2021,07,05,10,35,19.30
2021,07,05,10,36,19.40
2021,07,05,10,37,19.40
2021,07,05,10,38,19.50
2021,07,05,10,39,19.50
2021,07,05,10,40,19.50
2021,07,05,10,41,19.50
2021,07,05,10,42,19.50
2021,07,05,10,43,19.60
2021,07,05,10,44,19.60
2021,07,05,10,45,19.60
2021,07,05,10,46,19.60
2021,07,05,10,47,19.60
2021,07,05,10,48,19.60
2021,07,05,10,49,19.60
2021,07,05,10,50,19.60
2021,07,05,10,51,19.60
2021,07,05,10,52,19.50
2021,07,05,10,53,19.50
2021,07,05,10,54,19.50
2021,07,05,10,55,19.50
2021,07,05,10,56,19.60
2021,07,05,10,57,19.60
2021,07,05,10,58,19.60
2021,07,05,10,59,19.50
2021,07,05,11,00,19.50
2021,07,05,11,01,19.50
2021,07,05,11,02,19.50
2021,07,05,11,03,19.40
2021,07,05,11,04,19.40
2021,07,05,11,05,19.50
2021,07,05,11,06,19.50
2021,07,05,11,07,19.50
2021,07,05,11,08,19.50
2021,07,05,11,09,19.50
2021,07,05,11,10,19.60
2021,07,05,11,11,19.70
2021,07,05,11,12,19.70
2021,07,05,11,13,19.80
2021,07,05,11,14,19.80
2021,07,05,11,15,19.80
2021,07,05,11,16,19.80
2021,07,05,11,17,19.90
2021,07,05,11,18,19.90
2021,07,05,11,19,19.90
2021,07,05,11,20,19.90
2021,07,05,11,21,19.90
2021,07,05,11,22,19.90
2021,07,05,11,23,20.00
2021,07,05,11,24,20.10
2021,07,05,11,25,20.10
2021,07,05,11,26,19.90
2021,07,05,11,27,19.70
2021,07,05,11,28,19.70
2021,07,05,11,29,19.70
2021,07,05,11,30,19.70
2021,07,05,11,31,19.70
2021,07,05,11,32,19.70
2021,07,05,11,33,19.60
2021,07,05,11,34,19.40
2021,07,05,11,35,19.30
2021,07,05,11,36,19.30
2021,07,05,11,37,19.40
2021,07,05,11,38,19.40
2021,07,05,11,39,19.50
2021,07,05,11,40,19.50
2021,07,05,11,41,19.50
2021,07,05,11,42,19.40
2021,07,05,11,43,19.40
2021,07,05,11,44,19.30
2021,07,05,11,45,19.40
2021,07,05,11,46,19.50
2021,07,05,11,47,19.50
2021,07,05,11,48,19.60
2021,07,05,11,49,19.60
2021,07,05,11,50,19.50
2021,07,05,11,51,19.40
2021,07,05,11,52,19.40
2021,07,05,11,53,19.30
2021,07,05,11,54,19.40
2021,07,05,11,55,19.50
2021,07,05,11,56,19.50
2021,07,05,11,57,19.60
2021,07,05,11,58,19.70
2021,07,05,11,59,19.80
2021,07,05,12,00,19.90
2021,07,05,12,01,20.10
2021,07,05,12,02,20.20
2021,07,05,12,03,20.20
2021,07,05,12,04,20.20
2021,07,05,12,05,20.20
2021,07,05,12,06,20.20
2021,07,05,12,07,20.20
2021,07,05,12,08,20.20
2021,07,05,12,09,20.20
2021,07,05,12,10,20.10
2021,07,05,12,11,20.10
2021,07,05,12,12,19.90
2021,07,05,12,13,19.90
2021,07,05,12,14,19.90
2021,07,05,12,15,19.90
2021,07,05,12,16,19.90
2021,07,05,12,17,20.00
2021,07,05,12,18,20.10
2021,07,05,12,19,20.20
2021,07,05,12,20,20.20
2021,07,05,12,21,20.20
2021,07,05,12,22,20.30
2021,07,05,12,23,20.20
2021,07,05,12,24,20.30
2021,07,05,12,25,20.30
2021,07,05,12,26,20.20
2021,07,05,12,27,20.30
2021,07,05,12,28,20.20
2021,07,05,12,29,20.30
2021,07,05,12,30,20.30
2021,07,05,12,31,20.30
2021,07,05,12,32,20.30
2021,07,05,12,33,20.30
2021,07,05,12,34,20.30
2021,07,05,12,35,20.30
2021,07,05,12,36,20.30
2021,07,05,12,37,20.30
2021,07,05,12,38,20.30
2021,07,05,12,39,20.20
2021,07,05,12,40,20.10
2021,07,05,12,41,20.10
2021,07,05,12,42,20.00
2021,07,05,12,43,19.90
2021,07,05,12,44,19.70
2021,07,05,12,45,19.60
2021,07,05,12,46,19.30
2021,07,05,12,47,19.10
2021,07,05,12,48,19.00
2021,07,05,12,49,18.80
2021,07,05,12,50,18.70
2021,07,05,12,51,18.70
2021,07,05,12,52,18.70
2021,07,05,12,53,18.60
2021,07,05,12,54,18.70
2021,07,05,12,55,18.70
2021,07,05,12,56,18.70
2021,07,05,12,57,18.60
2021,07,05,12,58,18.50
2021,07,05,12,59,18.50
2021,07,05,13,00,18.50
2021,07,05,13,01,18.50
2021,07,05,13,02,18.30
2021,07,05,13,03,18.10
2021,07,05,13,04,18.00
2021,07,05,13,05,17.90
2021,07,05,13,06,17.90
2021,07,05,13,07,17.90
2021,07,05,13,08,17.90
2021,07,05,13,09,17.70
2021,07,05,13,10,17.70
2021,07,05,13,11,17.50
2021,07,05,13,12,17.40
2021,07,05,13,13,17.30
2021,07,05,13,14,17.30
2021,07,05,13,15,17.40
2021,07,05,13,16,17.50
2021,07,05,13,17,17.60
2021,07,05,13,18,17.70
2021,07,05,13,19,17.70
2021,07,05,13,20,17.70
2021,07,05,13,21,17.60
2021,07,05,13,22,17.50
2021,07,05,13,23,17.50
2021,07,05,13,24,17.50
2021,07,05,13,25,17.60
2021,07,05,13,26,17.70
2021,07,05,13,27,17.70
2021,07,05,13,28,17.80
2021,07,05,13,29,17.70
2021,07,05,13,30,17.60
2021,07,05,13,31,17.50
2021,07,05,13,32,17.50
2021,07,05,13,33,17.60
2021,07,05,13,34,17.60
2021,07,05,13,35,17.60
2021,07,05,13,36,17.60
2021,07,05,13,37,17.60
2021,07,05,13,38,17.60
2021,07,05,13,39,17.60
2021,07,05,13,40,17.70
2021,07,05,13,41,17.70
2021,07,05,13,42,17.90
2021,07,05,13,43,18.00
2021,07,05,13,44,18.00
2021,07,05,13,45,18.00
2021,07,05,13,46,18.10
2021,07,05,13,47,18.20
2021,07,05,13,48,18.20
2021,07,05,13,49,18.30
2021,07,05,13,50,18.40
2021,07,05,13,51,18.50
2021,07,05,13,52,18.40
2021,07,05,13,53,18.30
2021,07,05,13,54,18.20
2021,07,05,13,55,18.20
2021,07,05,13,56,18.20
2021,07,05,13,57,18.20
2021,07,05,13,58,18.30
2021,07,05,13,59,18.40
2021,07,05,14,00,18.50
2021,07,05,14,01,18.60
2021,07,05,14,02,18.70
2021,07,05,14,03,19.00
2021,07,05,14,04,19.10
2021,07,05,14,05,19.20
2021,07,05,14,06,19.20
2021,07,05,14,07,19.20
2021,07,05,14,08,19.30
2021,07,05,14,09,19.30
2021,07,05,14,10,19.30
2021,07,05,14,11,19.30
2021,07,05,14,12,19.40
2021,07,05,14,13,19.50
2021,07,05,14,14,19.60
2021,07,05,14,15,19.80
2021,07,05,14,16,19.90
2021,07,05,14,17,19.90
2021,07,05,14,18,19.90
2021,07,05,14,19,20.00
2021,07,05,14,20,20.10
2021,07,05,14,21,19.90
2021,07,05,14,22,19.90
2021,07,05,14,23,19.90
2021,07,05,14,24,20.10
2021,07,05,14,25,20.20
2021,07,05,14,26,20.40
2021,07,05,14,27,20.50
2021,07,05,14,28,20.60
2021,07,05,14,29,20.50
2021,07,05,14,30,20.50
2021,07,05,14,31,20.40
2021,07,05,14,32,20.30
2021,07,05,14,33,20.30
2021,07,05,14,34,20.30
2021,07,05,14,35,20.20
2021,07,05,14,36,20.20
2021,07,05,14,37,20.10
2021,07,05,14,38,20.20
2021,07,05,14,39,20.30
2021,07,05,14,40,20.40
2021,07,05,14,41,20.50
2021,07,05,14,42,20.60
2021,07,05,14,43,20.60
2021,07,05,14,44,20.80
2021,07,05,14,45,20.90
2021,07,05,14,46,21.00
2021,07,05,14,47,21.00
2021,07,05,14,48,20.90
2021,07,05,14,49,20.90
2021,07,05,14,50,20.90
2021,07,05,14,51,20.90
2021,07,05,14,52,20.90
2021,07,05,14,53,21.00
2021,07,05,14,54,21.10
2021,07,05,14,55,21.20
2021,07,05,14,56,21.30
2021,07,05,14,57,21.40
2021,07,05,14,58,21.60
2021,07,05,14,59,21.70
2021,07,05,15,00,21.80
2021,07,05,15,01,21.80
2021,07,05,15,02,21.80
2021,07,05,15,03,21.80
2021,07,05,15,04,21.70
2021,07,05,15,05,21.60
2021,07,05,15,06,21.60
2021,07,05,15,07,21.60
2021,07,05,15,08,21.50
2021,07,05,15,09,21.40
2021,07,05,15,10,21.60
2021,07,05,15,11,21.60
2021,07,05,15,12,21.60
2021,07,05,15,13,21.60
2021,07,05,15,14,21.60
2021,07,05,15,15,21.60
2021,07,05,15,16,21.60
2021,07,05,15,17,21.50
2021,07,05,15,18,21.40
2021,07,05,15,19,21.40
2021,07,05,15,20,21.50
2021,07,05,15,21,21.60
2021,07,05,15,22,21.60
2021,07,05,15,23,21.70
2021,07,05,15,24,21.70
2021,07,05,15,25,21.80
2021,07,05,15,26,21.90
2021,07,05,15,27,21.90
2021,07,05,15,28,21.90
2021,07,05,15,29,21.80
2021,07,05,15,30,21.80
2021,07,05,15,31,21.70
2021,07,05,15,32,21.80
2021,07,05,15,33,21.80
2021,07,05,15,34,21.90
2021,07,05,15,35,21.90
2021,07,05,15,36,22.00
2021,07,05,15,37,22.00
2021,07,05,15,38,22.00
2021,07,05,15,39,22.00
2021,07,05,15,40,21.90
2021,07,05,15,41,21.90
2021,07,05,15,42,21.90
2021,07,05,15,43,21.80
2021,07,05,15,44,21.80
2021,07,05,15,45,21.70
2021,07,05,15,46,21.60
2021,07,05,15,47,21.50
2021,07,05,15,48,21.40
2021,07,05,15,49,21.30
2021,07,05,15,50,21.30
2021,07,05,15,51,21.30
2021,07,05,15,52,21.30
2021,07,05,15,53,21.30
2021,07,05,15,54,21.30
2021,07,05,15,55,21.30
2021,07,05,15,56,21.30
2021,07,05,15,57,21.20
2021,07,05,15,58,21.20
2021,07,05,15,59,21.10
2021,07,05,16,00,21.10
2021,07,05,16,01,21.10
2021,07,05,16,02,21.10
2021,07,05,16,03,21.10
2021,07,05,16,04,21.20
2021,07,05,16,05,21.30
2021,07,05,16,06,21.30
2021,07,05,16,07,21.30
2021,07,05,16,08,21.30
2021,07,05,16,09,21.30
2021,07,05,16,10,21.30
2021,07,05,16,11,21.30
2021,07,05,16,12,21.30
2021,07,05,16,13,21.30
2021,07,05,16,14,21.30
2021,07,05,16,15,21.30
2021,07,05,16,16,21.30
2021,07,05,16,17,21.30
2021,07,05,16,18,21.30
2021,07,05,16,19,21.30
2021,07,05,16,20,21.40
2021,07,05,16,21,21.50
2021,07,05,16,22,21.60
2021,07,05,16,23,21.60
2021,07,05,16,24,21.50
2021,07,05,16,25,21.40
2021,07,05,16,26,21.40
2021,07,05,16,27,21.40
2021,07,05,16,28,21.60
2021,07,05,16,29,21.60
2021,07,05,16,30,21.60
2021,07,05,16,31,21.60
2021,07,05,16,32,21.50
2021,07,05,16,33,21.40
2021,07,05,16,34,21.30
2021,07,05,16,35,21.30
2021,07,05,16,36,21.10
2021,07,05,16,37,21.00
2021,07,05,16,38,20.90
2021,07,05,16,39,20.90
2021,07,05,16,40,20.90
2021,07,05,16,41,20.80
2021,07,05,16,42,20.80
2021,07,05,16,43,20.80
2021,07,05,16,44,20.70
2021,07,05,16,45,20.80
2021,07,05,16,46,20.80
2021,07,05,16,47,20.80
2021,07,05,16,48,20.80
2021,07,05,16,49,20.80
2021,07,05,16,50,20.80
2021,07,05,16,51,20.90
2021,07,05,16,52,20.90
2021,07,05,16,53,20.90
2021,07,05,16,54,20.90
2021,07,05,16,55,20.90
2021,07,05,16,56,20.90
2021,07,05,16,57,20.90
2021,07,05,16,58,20.90
2021,07,05,16,59,20.90
2021,07,05,17,00,20.80
2021,07,05,17,01,20.80
2021,07,05,17,02,20.70
2021,07,05,17,03,20.70
2021,07,05,17,04,20.70
2021,07,05,17,05,20.80
2021,07,05,17,06,20.90
2021,07,05,17,07,21.00
2021,07,05,17,08,21.10
2021,07,05,17,09,21.20
2021,07,05,17,10,21.30
2021,07,05,17,11,21.30
2021,07,05,17,12,21.30
2021,07,05,17,13,21.30
2021,07,05,17,14,21.30
2021,07,05,17,15,21.30
2021,07,05,17,16,21.30
2021,07,05,17,17,21.20
2021,07,05,17,18,21.10
2021,07,05,17,19,21.00
2021,07,05,17,20,20.90
2021,07,05,17,21,20.80
2021,07,05,17,22,20.80
2021,07,05,17,23,20.80
2021,07,05,17,24,20.70
2021,07,05,17,25,20.70
2021,07,05,17,26,20.70
2021,07,05,17,27,20.70
2021,07,05,17,28,20.70
2021,07,05,17,29,20.70
2021,07,05,17,30,20.60
2021,07,05,17,31,20.60
2021,07,05,17,32,20.60
2021,07,05,17,33,20.60
2021,07,05,17,34,20.60
2021,07,05,17,35,20.60
2021,07,05,17,36,20.60
2021,07,05,17,37,20.70
2021,07,05,17,38,20.70
2021,07,05,17,39,20.70
2021,07,05,17,40,20.70
2021,07,05,17,41,20.70
2021,07,05,17,42,20.70
2021,07,05,17,43,20.80
2021,07,05,17,44,20.80
2021,07,05,17,45,21.00
2021,07,05,17,46,21.00
2021,07,05,17,47,21.10
2021,07,05,17,48,21.20
2021,07,05,17,49,21.30
2021,07,05,17,50,21.30
2021,07,05,17,51,21.40
2021,07,05,17,52,21.40
2021,07,05,17,53,21.40
2021,07,05,17,54,21.30
2021,07,05,17,55,21.30
2021,07,05,17,56,21.30
2021,07,05,17,57,21.30
2021,07,05,17,58,21.30
2021,07,05,17,59,21.20
2021,07,05,18,00,21.20
2021,07,05,18,01,21.10
2021,07,05,18,02,21.10
2021,07,05,18,03,21.20
2021,07,05,18,04,21.20
2021,07,05,18,05,21.20
2021,07,05,18,06,21.20
2021,07,05,18,07,21.20
2021,07,05,18,08,21.10
2021,07,05,18,09,21.10
2021,07,05,18,10,21.10
2021,07,05,18,11,21.10
2021,07,05,18,12,21.00
2021,07,05,18,13,21.00
2021,07,05,18,14,21.00
2021,07,05,18,15,21.00
2021,07,05,18,16,21.10
2021,07,05,18,17,21.10
2021,07,05,18,18,21.10
2021,07,05,18,19,21.10
2021,07,05,18,20,21.10
2021,07,05,18,21,21.10
2021,07,05,18,22,21.10
2021,07,05,18,23,21.20
2021,07,05,18,24,21.30
2021,07,05,18,25,21.30
2021,07,05,18,26,21.30
2021,07,05,18,27,21.30
2021,07,05,18,28,21.20
2021,07,05,18,29,21.10
2021,07,05,18,30,21.10
2021,07,05,18,31,21.10
2021,07,05,18,32,21.20
2021,07,05,18,33,21.10
2021,07,05,18,34,21.10
2021,07,05,18,35,21.10
2021,07,05,18,36,21.10
2021,07,05,18,37,21.20
2021,07,05,18,38,21.20
2021,07,05,18,39,21.20
2021,07,05,18,40,21.20
2021,07,05,18,41,21.20
2021,07,05,18,42,21.30
2021,07,05,18,43,21.30
2021,07,05,18,44,21.30
2021,07,05,18,45,21.30
2021,07,05,18,46,21.30
2021,07,05,18,47,21.30
2021,07,05,18,48,21.20
2021,07,05,18,49,21.20
2021,07,05,18,50,21.10
2021,07,05,18,51,21.10
2021,07,05,18,52,21.10
2021,07,05,18,53,21.10
2021,07,05,18,54,21.10
2021,07,05,18,55,21.10
2021,07,05,18,56,21.00
2021,07,05,18,57,20.90
2021,07,05,18,58,20.90
2021,07,05,18,59,20.90
2021,07,05,19,00,20.90
2021,07,05,19,01,20.90
2021,07,05,19,02,20.80
2021,07,05,19,03,20.80
2021,07,05,19,04,20.80
2021,07,05,19,05,20.70
2021,07,05,19,06,20.70
2021,07,05,19,07,20.70
2021,07,05,19,08,20.80
2021,07,05,19,09,20.80
2021,07,05,19,10,20.80
2021,07,05,19,11,20.80
2021,07,05,19,12,20.80
2021,07,05,19,13,20.80
2021,07,05,19,14,20.90
2021,07,05,19,15,20.90
2021,07,05,19,16,20.90
2021,07,05,19,17,21.00
2021,07,05,19,18,21.00
2021,07,05,19,19,21.00
2021,07,05,19,20,21.00
2021,07,05,19,21,20.90
2021,07,05,19,22,20.90
2021,07,05,19,23,20.90
2021,07,05,19,24,20.80
2021,07,05,19,25,20.80
2021,07,05,19,26,20.80
2021,07,05,19,27,20.80
2021,07,05,19,28,20.80
2021,07,05,19,29,20.70
2021,07,05,19,30,20.70
2021,07,05,19,31,20.60
2021,07,05,19,32,20.60
2021,07,05,19,33,20.50
2021,07,05,19,34,20.50
2021,07,05,19,35,20.50
2021,07,05,19,36,20.50
2021,07,05,19,37,20.50
2021,07,05,19,38,20.50
2021,07,05,19,39,20.50
2021,07,05,19,40,20.50
2021,07,05,19,41,20.50
2021,07,05,19,42,20.50
2021,07,05,19,43,20.50
2021,07,05,19,44,20.40
2021,07,05,19,45,20.40
2021,07,05,19,46,20.30
2021,07,05,19,47,20.20
2021,07,05,19,48,20.20
2021,07,05,19,49,20.20
2021,07,05,19,50,20.20
2021,07,05,19,51,20.10
2021,07,05,19,52,20.10
2021,07,05,19,53,20.00
2021,07,05,19,54,19.90
2021,07,05,19,55,19.90
2021,07,05,19,56,19.90
2021,07,05,19,57,19.90
2021,07,05,19,58,19.90
2021,07,05,19,59,19.90
2021,07,05,20,00,19.90
2021,07,05,20,01,19.90
2021,07,05,20,02,19.90
2021,07,05,20,03,19.90
2021,07,05,20,04,19.80
2021,07,05,20,05,19.80
2021,07,05,20,06,19.70
2021,07,05,20,07,19.70
2021,07,05,20,08,19.60
2021,07,05,20,09,19.60
2021,07,05,20,10,19.50
2021,07,05,20,11,19.50
2021,07,05,20,12,19.50
2021,07,05,20,13,19.50
2021,07,05,20,14,19.40
2021,07,05,20,15,19.40
2021,07,05,20,16,19.40
2021,07,05,20,17,19.30
2021,07,05,20,18,19.30
2021,07,05,20,19,19.30
2021,07,05,20,20,19.30
2021,07,05,20,21,19.30
2021,07,05,20,22,19.30
2021,07,05,20,23,19.20
2021,07,05,20,24,19.20
2021,07,05,20,25,19.20
2021,07,05,20,26,19.10
2021,07,05,20,27,19.10
2021,07,05,20,28,19.00
2021,07,05,20,29,18.90
2021,07,05,20,30,18.90
2021,07,05,20,31,18.90
2021,07,05,20,32,18.80
2021,07,05,20,33,18.80
2021,07,05,20,34,18.70
2021,07,05,20,35,18.70
2021,07,05,20,36,18.70
2021,07,05,20,37,18.60
2021,07,05,20,38,18.60
2021,07,05,20,39,18.50
2021,07,05,20,40,18.50
2021,07,05,20,41,18.50
2021,07,05,20,42,18.40
2021,07,05,20,43,18.40
2021,07,05,20,44,18.30
2021,07,05,20,45,18.30
2021,07,05,20,46,18.30
2021,07,05,20,47,18.20
2021,07,05,20,48,18.20
2021,07,05,20,49,18.20
2021,07,05,20,50,18.20
2021,07,05,20,51,18.20
2021,07,05,20,52,18.20
2021,07,05,20,53,18.10
2021,07,05,20,54,18.10
2021,07,05,20,55,18.10
2021,07,05,20,56,18.10
2021,07,05,20,57,18.10
2021,07,05,20,58,18.10
2021,07,05,20,59,18.10
2021,07,05,21,00,18.10
2021,07,05,21,01,18.10
2021,07,05,21,02,18.10
